Total_Precipitation_Accumulation
0.00 0.00 0.00 0.00 0.00 0.00 0.00 0.00 0.00 0.00 0.00 0.00 0.00 0.00 0.01 0.04 0.10 0.22 0.45 0.70 0.98 1.18 1.28 1.39 1.55 1.69 1.76 1.77 1.87 1.95 2.20 2.54 2.67 2.58 2.47 2.35 1.98 1.66 1.32 1.09 1.05 1.16 1.22 1.35
0.00 0.00 0.00 0.00 0.00 0.00 0.00 0.00 0.00 0.00 0.00 0.00 0.00 0.01 0.02 0.07 0.11 0.15 0.32 0.55 0.79 1.20 1.44 1.59 1.74 1.83 1.79 1.89 2.10 2.35 2.61 2.87 2.71 2.80 2.95 2.81 2.49 1.87 1.52 1.32 1.26 1.29 1.39 1.45
0.00 0.00 0.00 0.00 0.00 0.00 0.00 0.00 0.00 0.00 0.00 0.00 0.00 0.01 0.04 0.12 0.21 0.31 0.45 0.54 0.60 0.89 1.19 1.30 1.40 1.51 1.75 2.08 2.44 2.66 2.80 2.85 2.77 2.87 2.94 2.60 2.35 1.91 1.72 1.65 1.53 1.46 1.57 1.62
0.00 0.00 0.00 0.00 0.00 0.00 0.00 0.00 0.00 0.00 0.00 0.00 0.00 0.01 0.03 0.09 0.20 0.38 0.55 0.67 0.86 1.02 1.06 1.16 1.28 1.52 1.88 2.20 2.58 2.90 2.86 2.81 2.75 2.83 2.81 2.63 2.34 2.05 1.95 1.96 1.74 1.58 1.53 1.54
0.01 0.00 0.00 0.00 0.00 0.00 0.00 0.00 0.00 0.00 0.00 0.00 0.01 0.01 0.04 0.08 0.17 0.34 0.51 0.74 0.98 1.03 0.98 1.10 1.25 1.47 1.68 2.00 2.30 2.55 2.72 2.75 2.68 2.63 2.56 2.51 2.31 2.05 1.92 1.84 1.72 1.65 1.66 1.55
0.03 0.03 0.01 0.01 0.00 0.00 0.00 0.00 0.00 0.00 0.01 0.02 0.03 0.04 0.07 0.15 0.24 0.34 0.51 0.70 0.91 1.12 1.16 1.20 1.40 1.54 1.62 1.81 2.07 2.23 2.35 2.39 2.35 2.25 2.20 2.20 2.13 2.08 1.93 1.76 1.76 1.78 1.72 1.55
0.07 0.06 0.06 0.04 0.03 0.01 0.01 0.01 0.05 0.05 0.08 0.09 0.09 0.09 0.21 0.34 0.41 0.44 0.52 0.73 1.01 1.24 1.27 1.35 1.51 1.62 1.67 1.70 1.76 1.81 1.84 1.87 1.81 1.73 1.67 1.70 1.71 1.73 1.67 1.65 1.70 1.73 1.66 1.55
0.13 0.08 0.09 0.10 0.08 0.05 0.04 0.07 0.17 0.15 0.06 0.06 0.10 0.18 0.37 0.44 0.47 0.50 0.53 0.68 0.94 1.09 1.15 1.26 1.33 1.26 1.20 1.22 1.27 1.30 1.29 1.29 1.26 1.28 1.30 1.33 1.43 1.48 1.48 1.57 1.59 1.63 1.62 1.57
0.06 0.06 0.07 0.09 0.11 0.11 0.15 0.19 0.16 0.25 0.18 0.16 0.14 0.27 0.41 0.46 0.61 0.66 0.71 0.78 0.83 0.83 0.81 0.83 0.85 0.89 0.94 0.97 0.97 0.96 0.99 0.99 0.95 0.94 1.02 1.10 1.15 1.23 1.26 1.35 1.38 1.37 1.36 1.30
0.02 0.03 0.04 0.04 0.06 0.09 0.16 0.26 0.35 0.50 0.49 0.38 0.22 0.36 0.62 0.80 0.89 0.87 0.98 1.18 1.02 0.74 0.62 0.59 0.58 0.63 0.67 0.70 0.75 0.79 0.87 0.96 0.94 0.87 0.87 0.88 0.92 0.97 1.06 1.12 1.15 1.18 1.22 1.19
0.01 0.04 0.05 0.06 0.08 0.14 0.24 0.32 0.41 0.52 0.55 0.52 0.45 0.53 0.54 0.86 0.96 0.97 0.99 1.00 0.83 0.54 0.38 0.33 0.34 0.38 0.46 0.59 0.67 0.69 0.79 0.87 0.83 0.74 0.73 0.77 0.78 0.81 0.86 0.92 0.94 0.99 1.04 1.10
0.02 0.03 0.04 0.06 0.09 0.10 0.19 0.32 0.43 0.53 0.54 0.54 0.56 0.65 0.48 0.64 0.70 0.70 0.73 0.57 0.44 0.31 0.23 0.21 0.21 0.25 0.33 0.42 0.47 0.55 0.64 0.74 0.76 0.72 0.71 0.75 0.77 0.76 0.75 0.77 0.76 0.78 0.82 0.84
0.01 0.02 0.03 0.08 0.15 0.15 0.16 0.19 0.26 0.36 0.43 0.45 0.57 0.72 0.49 0.46 0.52 0.50 0.43 0.36 0.27 0.22 0.17 0.16 0.17 0.21 0.24 0.29 0.36 0.43 0.48 0.56 0.64 0.66 0.70 0.76 0.75 0.72 0.73 0.76 0.76 0.74 0.73 0.73
0.00 0.00 0.02 0.07 0.10 0.10 0.14 0.19 0.24 0.30 0.40 0.38 0.40 0.56 0.54 0.46 0.41 0.37 0.30 0.24 0.21 0.17 0.16 0.14 0.15 0.16 0.16 0.19 0.26 0.31 0.34 0.41 0.48 0.57 0.71 0.82 0.87 0.86 0.86 0.80 0.80 0.78 0.74 0.74
0.01 0.01 0.02 0.02 0.03 0.06 0.10 0.15 0.19 0.26 0.29 0.36 0.33 0.41 0.46 0.39 0.33 0.27 0.23 0.21 0.22 0.20 0.15 0.12 0.11 0.10 0.11 0.13 0.17 0.25 0.32 0.36 0.42 0.57 0.77 0.87 0.84 0.78 0.76 0.73 0.79 0.76 0.68 0.68
0.01 0.01 0.03 0.06 0.08 0.12 0.18 0.21 0.19 0.17 0.16 0.17 0.23 0.33 0.29 0.27 0.26 0.26 0.24 0.21 0.19 0.16 0.13 0.11 0.10 0.08 0.08 0.08 0.09 0.16 0.26 0.32 0.40 0.51 0.62 0.65 0.68 0.70 0.65 0.60 0.57 0.56 0.58 0.57
0.01 0.02 0.03 0.06 0.13 0.18 0.27 0.24 0.26 0.27 0.21 0.22 0.34 0.36 0.26 0.23 0.19 0.16 0.14 0.13 0.13 0.11 0.09 0.08 0.08 0.07 0.06 0.06 0.08 0.14 0.20 0.25 0.35 0.42 0.46 0.53 0.62 0.64 0.57 0.48 0.50 0.53 0.51 0.49
0.01 0.01 0.03 0.06 0.17 0.32 0.26 0.07 0.07 0.11 0.14 0.15 0.20 0.20 0.17 0.15 0.11 0.09 0.07 0.07 0.07 0.06 0.06 0.05 0.05 0.05 0.05 0.06 0.09 0.13 0.19 0.24 0.33 0.43 0.49 0.52 0.62 0.62 0.55 0.52 0.50 0.49 0.46 0.45
0.01 0.01 0.02 0.06 0.12 0.21 0.13 0.05 0.04 0.07 0.09 0.04 0.07 0.08 0.08 0.06 0.07 0.10 0.06 0.03 0.03 0.03 0.04 0.04 0.03 0.05 0.08 0.08 0.10 0.15 0.22 0.26 0.34 0.43 0.53 0.61 0.66 0.63 0.57 0.54 0.49 0.47 0.46 0.41
0.00 0.00 0.01 0.03 0.10 0.16 0.09 0.04 0.05 0.08 0.21 0.11 0.08 0.07 0.06 0.06 0.13 0.16 0.05 0.01 0.01 0.03 0.07 0.08 0.06 0.09 0.14 0.14 0.14 0.20 0.27 0.34 0.45 0.53 0.60 0.65 0.66 0.66 0.62 0.59 0.55 0.50 0.49 0.44
0.00 0.00 0.01 0.03 0.08 0.09 0.03 0.04 0.06 0.16 0.25 0.06 0.02 0.02 0.02 0.06 0.11 0.08 0.02 0.01 0.01 0.03 0.08 0.12 0.15 0.22 0.23 0.19 0.23 0.30 0.35 0.41 0.48 0.55 0.62 0.69 0.73 0.69 0.65 0.65 0.64 0.60 0.57 0.56
0.01 0.01 0.01 0.03 0.10 0.12 0.02 0.02 0.04 0.06 0.03 0.02 0.02 0.02 0.02 0.02 0.02 0.03 0.02 0.02 0.02 0.04 0.07 0.15 0.25 0.29 0.27 0.28 0.39 0.47 0.49 0.48 0.50 0.59 0.66 0.75 0.79 0.66 0.61 0.70 0.71 0.69 0.69 0.68
0.00 0.01 0.01 0.03 0.05 0.02 0.01 0.01 0.02 0.02 0.02 0.02 0.02 0.01 0.02 0.02 0.02 0.03 0.02 0.03 0.07 0.09 0.11 0.13 0.22 0.27 0.29 0.37 0.52 0.68 0.68 0.61 0.61 0.67 0.75 0.76 0.77 0.81 0.82 0.77 0.76 0.75 0.74 0.74
0.00 0.01 0.01 0.03 0.02 0.01 0.01 0.01 0.01 0.01 0.01 0.01 0.01 0.01 0.01 0.02 0.02 0.02 0.02 0.03 0.07 0.10 0.11 0.12 0.18 0.27 0.36 0.45 0.59 0.71 0.74 0.72 0.73 0.75 0.79 0.82 0.84 0.86 0.88 0.91 0.89 0.85 0.80 0.81
0.00 0.00 0.02 0.05 0.03 0.02 0.01 0.01 0.01 0.00 0.01 0.01 0.01 0.01 0.01 0.02 0.03 0.03 0.04 0.04 0.06 0.08 0.09 0.13 0.21 0.32 0.38 0.46 0.56 0.63 0.67 0.76 0.83 0.84 0.86 0.89 0.91 0.93 0.94 0.94 0.92 0.88 0.84 0.77
0.01 0.01 0.03 0.04 0.03 0.03 0.03 0.01 0.00 0.00 0.01 0.01 0.01 0.01 0.02 0.02 0.03 0.04 0.05 0.05 0.07 0.08 0.10 0.16 0.22 0.29 0.35 0.43 0.52 0.58 0.70 0.81 0.93 0.95 0.88 0.87 0.86 0.87 0.89 0.89 0.78 0.64 0.61 0.56